Regional Weather Roundup
Issued by NWS

Home | Current Version | Previous Version | Text Only | Print | Product List | Glossary Off
Versions: 1 2 3 4 5 6 7 8 9 10 11 12 13 14 15 16 17 18 19 20 21 22 23 24 25 26 27 28 29 30 31 32 33 34 35 36 37 38 39 40 41 42 43 44 45 46 47 48 49 50

000
ASUS45 KBOU 200807
RWRCO

WEATHER ROUNDUP FOR COLORADO
NATIONAL WEATHER SERVICE DENVER/BOULDER CO
100 AM MST SAT DEC 20 2014

NOTE: "FAIR" INDICATES FEW OR NO CLOUDS BELOW 12000 FEET WITH NO
SIGNIFICANT WEATHER AND/OR OBSTRUCTIONS TO VISIBILITY.

COZ001>005-013-030-031-200900-
...NORTHWEST COLORADO...

CITY           SKY/WX    TMP DP  RH WIND       PRES   REMARKS
CRAIG          CLOUDY    19  15  84 SW5       30.17S WCI  12
HAYDEN         MOCLDY    19  12  73 E12       30.15S WCI   7
MEEKER         CLOUDY    21  16  81 CALM      30.17S
MOUNT WERNER   NOT AVBL
STEAMBOAT SPGS CLOUDY    16  13  89 NW5       30.15S WCI   9
WALDEN         CLOUDY    19  12  73 SE8       30.09F WCI   9
$$

COZ006>008-011-200900-
...WEST CENTRAL VALLEYS...

CITY           SKY/WX    TMP DP  RH WIND       PRES   REMARKS
GRAND JUNCTION MOCLDY    28  25  88 CALM      30.21S
MONTROSE       PTCLDY    25  18  74 SE10      30.24F WCI  15
EAGLE          CLOUDY    16  14  93 CALM      30.24S
RIFLE          CLOUDY    26  20  77 NE3       30.21F
DELTA          PTCLDY    27  22  79 NE6       30.23F WCI  21
NUCLA          PTCLDY    27  21  80 SE7       30.25R WCI  19
$$

COZ017>023-064>068-200900-
...SOUTHWEST COLORADO...

CITY           SKY/WX    TMP DP  RH WIND       PRES   REMARKS
DURANGO        CLOUDY    23  20  88 N5        30.18F WCI  17
CORTEZ         CLEAR     23  20  88 NE6       30.21F WCI  16
PAGOSA SPRINGS PTCLDY    17  17  96 CALM      30.17S
TELLURIDE      PTCLDY    16  13  87 E3        30.19F
WOLF CREEK PAS PTCLDY    19   1  45 MISG      30.14S
$$

COZ009-010-012-014-032>034-037-058>063-200900-
...CENTRAL COLORADO...

CITY           SKY/WX    TMP DP  RH WIND       PRES   REMARKS
ASPEN          PTCLDY    12   6  77 SW7       30.17F WCI   1
BUENA VISTA    PTCLDY    15   7  69 W5        30.12S WCI   7
COPPER MTN     CLOUDY    18   9  68 W13       30.12R WCI   4
BERTHOUD PASS  MOCLDY     9   3  78 MISG      30.06R
COTTONWOOD PAS PTCLDY    27   9  46 NW8       30.10R WCI  18
GUNNISON       PTCLDY     7   1  78 SE3       30.24R
KREMMLING      CLOUDY    10   5  79 CALM      30.20F
LEADVILLE      PTCLDY     6   2  83 NE7       30.11S WCI  -6
MONARCH PASS     N/A     10   7  85 MISG      30.20S
SALIDA         PTCLDY    26  11  53 NW9       30.19S WCI  17
SUNLIGHT       CLOUDY   N/A N/A N/A CALM      30.15F
WILKERSON PASS PTCLDY    21   9  58 NW12G20   30.09F WCI   9
$$

COZ069>075-200900-
...SAN LUIS VALLEY/SANGRE DE CRISTO MOUNTAINS...

CITY           SKY/WX    TMP DP  RH WIND       PRES   REMARKS
ALAMOSA        MOCLDY     9   4  80 CALM      30.14F
LA VETA PASS   NOT AVBL
SAGUACHE       PTCLDY    19  10  68 NW9       30.16S WCI   9
$$

COZ035-036-038>040-200900-
...NORTHERN COLORADO FRONT RANGE...

CITY           SKY/WX    TMP DP  RH WIND       PRES   REMARKS
DENVER INTL AP CLEAR     28  16  60 SW9       29.99F WCI  19
DMNS CITY PARK   N/A     28  17  64 SE9       29.99F WCI  19
AURORA         MOCLDY    29  15  56 S10       30.00F WCI  19
FRONT RANGE AP CLEAR     28  21  74 S8        30.00F WCI  20
ERIE MUNI ARPT   N/A     22  16  78 CALM      29.99F
BOULDER MUN AP CLEAR     30  19  64 CALM      29.99S
CENTENNIAL     PTCLDY    27  16  63 SE3       30.00S
BROOMFIELD     CLEAR     32  14  47 CALM      29.99F
FORT COLLINS   CLEAR     27  18  69 N6        30.01S WCI  20
LONGMONT       CLEAR     23  15  74 W5        30.02S WCI  16
$$

COZ041-046-047-076>085-087-088-200900-
...PIKES PEAK/PALMER DIVIDE AND SOUTHERN FOOTHILLS...

CITY           SKY/WX    TMP DP  RH WIND       PRES   REMARKS
COLO. SPRINGS  MOCLDY    25  19  78 N5        30.03F WCI  19
A. F. ACADEMY  PTCLDY    19  13  77 N12       30.02F WCI   6
ELLICOTT       NOT AVBL
FALCON         MOCLDY    23  18  80 W8        30.02F WCI  14
FORT CARSON    MOCLDY    25  16  68 NW7       30.02F WCI  17
LIMON          MOCLDY    19  16  88 N7        30.02S WCI  10
MONUMENT HILL  PTCLDY    25  14  63 SW9       30.00S WCI  15
TRINIDAD       MOCLDY    29  16  58 W12       30.04F WCI  19
$$

COZ042>045-048>051-090-091-200900-
...NORTHEAST COLORADO...

CITY           SKY/WX    TMP DP  RH WIND       PRES   REMARKS
GREELEY ARPT   CLEAR     16   7  67 W3        30.00R
AKRON          MOCLDY    31  22  69 SW15      29.99F WCI  20
BURLINGTON     PTCLDY    31  27  85 SW10      30.02F WCI  22
WRAY           NOT AVBL
STERLING       MOCLDY    12  10  92 W3        30.00F FOG
HOLYOKE        PTCLDY    19  16  86 W6        30.01S WCI  11
FORT MORGAN    MOCLDY    16  13  88 W8        30.01S WCI   5
$$

COZ086-089-092>099-200900-
...SOUTHEAST COLORADO...

CITY           SKY/WX    TMP DP  RH WIND       PRES   REMARKS
PUEBLO         CLOUDY    22  18  85 CALM      30.03F
LA JUNTA       MOCLDY    25  21  85 W7        30.03F WCI  17
LAMAR          PTCLDY    21  19  92 SW5       30.03F WCI  15
SPRINGFIELD      N/A     27  23  85 W7        30.03F WCI  19
$$



USA.gov is the U.S. government's official web portal to all federal, state and local government web resources and services.